Total_Precipitation_Accumulation
0.17 0.18 0.22 0.23 0.24 0.23 0.26 0.32 0.36 0.44 0.53 0.61 0.75 0.96 1.24 1.35 1.44 1.40 1.22 1.16 1.28 1.52 1.72 1.69 1.73 1.75 1.61 1.56 1.61 1.80 1.73 1.46 1.24 1.24 1.06 0.89 0.73 0.81 0.83 0.80 0.82 0.80 0.86
0.11 0.10 0.12 0.15 0.16 0.16 0.18 0.24 0.32 0.42 0.51 0.60 0.77 0.94 1.08 1.08 1.26 1.41 1.39 1.30 1.29 1.44 1.57 1.82 1.91 1.83 1.84 1.95 1.98 2.27 2.39 1.97 1.56 1.54 1.62 1.35 1.13 0.85 0.70 0.74 0.75 0.82 1.01
0.10 0.09 0.09 0.10 0.10 0.12 0.13 0.17 0.24 0.35 0.48 0.64 0.87 1.09 1.27 1.36 1.42 1.35 1.43 1.44 1.37 1.41 1.51 1.66 1.82 1.82 1.88 1.97 2.08 2.40 2.82 2.57 2.07 1.84 2.00 1.68 1.47 1.27 0.87 0.70 0.72 0.82 0.99
0.11 0.10 0.09 0.10 0.10 0.10 0.10 0.14 0.23 0.38 0.59 0.80 1.06 1.31 1.51 1.55 1.44 1.48 1.51 1.39 1.33 1.30 1.37 1.51 1.64 1.76 1.78 1.91 2.00 2.11 2.56 2.87 2.55 2.26 1.93 1.60 1.51 1.56 1.33 0.93 0.82 0.89 0.94
0.15 0.14 0.13 0.16 0.17 0.17 0.18 0.25 0.45 0.70 0.96 1.17 1.43 1.72 1.72 1.61 1.51 1.51 1.47 1.42 1.43 1.40 1.39 1.53 1.60 1.61 1.66 1.76 2.09 2.34 2.59 2.77 2.70 2.59 2.42 2.17 1.85 1.47 1.52 1.44 1.15 1.05 0.98
0.23 0.28 0.33 0.39 0.44 0.47 0.61 0.81 1.08 1.27 1.36 1.48 1.64 1.76 1.73 1.74 1.68 1.49 1.40 1.39 1.43 1.49 1.53 1.59 1.59 1.56 1.59 1.69 1.91 2.18 2.39 2.71 2.87 2.75 2.53 2.36 2.19 1.93 1.76 1.53 1.42 1.37 1.15
0.34 0.46 0.61 0.74 0.85 0.97 1.11 1.24 1.43 1.59 1.54 1.51 1.55 1.59 1.60 1.59 1.57 1.51 1.41 1.35 1.36 1.37 1.41 1.52 1.64 1.72 1.74 1.85 2.02 2.16 2.07 2.29 2.67 2.65 2.47 2.34 2.09 2.04 2.06 1.89 1.61 1.44 1.15
0.52 0.63 0.72 0.83 1.00 1.14 1.20 1.21 1.32 1.43 1.40 1.38 1.34 1.31 1.37 1.40 1.35 1.27 1.25 1.28 1.35 1.33 1.27 1.32 1.43 1.57 1.73 1.78 1.83 1.84 1.81 1.94 2.18 2.26 2.41 2.48 2.21 2.04 1.90 1.81 1.83 1.58 1.33
0.80 0.94 1.05 1.17 1.22 1.25 1.31 1.23 1.23 1.28 1.29 1.23 1.14 1.13 1.18 1.23 1.25 1.19 1.20 1.18 1.17 1.09 1.02 1.02 1.07 1.15 1.23 1.31 1.46 1.55 1.66 1.71 1.83 1.98 2.10 2.24 2.33 2.22 1.97 1.87 1.83 1.75 1.56
1.04 1.33 1.58 1.75 1.57 1.31 1.20 1.15 1.08 1.09 1.18 1.16 1.09 1.04 1.12 1.13 1.11 1.14 1.11 1.10 1.10 1.01 0.94 0.90 0.86 0.83 0.81 0.85 1.03 1.22 1.34 1.45 1.61 1.80 1.93 1.94 1.99 2.17 2.12 1.93 1.88 1.78 1.62
1.19 1.35 1.54 1.71 1.61 1.30 1.07 1.08 1.09 1.05 1.03 1.03 1.05 1.04 1.01 0.91 0.90 0.95 0.96 0.95 0.95 0.99 0.98 0.89 0.82 0.89 0.89 0.85 0.91 0.96 1.02 1.10 1.25 1.40 1.53 1.68 1.93 2.21 2.23 2.17 2.04 1.90 1.73
1.10 1.09 1.14 1.21 1.23 1.08 0.90 0.86 1.00 1.05 0.99 0.96 0.98 0.97 0.88 0.82 0.79 0.77 0.74 0.66 0.64 0.67 0.76 0.84 0.79 0.78 0.80 0.82 0.88 0.90 0.94 0.97 1.05 1.15 1.27 1.44 1.74 2.07 2.29 2.37 2.27 2.11 1.93
1.08 1.04 0.96 0.90 0.93 0.89 0.82 0.79 0.93 1.06 1.08 1.05 0.89 0.80 0.76 0.72 0.71 0.62 0.58 0.55 0.50 0.50 0.54 0.63 0.64 0.73 0.80 0.83 0.85 0.87 0.91 0.93 1.02 1.16 1.21 1.27 1.46 1.66 1.87 2.05 2.18 2.16 2.13
0.78 0.72 0.67 0.62 0.61 0.65 0.69 0.75 0.86 0.93 1.05 1.16 1.03 0.87 0.78 0.70 0.65 0.58 0.55 0.51 0.49 0.52 0.58 0.70 0.74 0.70 0.68 0.73 0.84 0.88 0.84 0.83 0.87 0.96 1.05 1.15 1.20 1.35 1.49 1.60 1.79 2.00 2.22
0.39 0.38 0.38 0.36 0.35 0.35 0.36 0.45 0.58 0.74 0.92 1.11 1.09 0.93 0.86 0.79 0.66 0.60 0.61 0.58 0.61 0.57 0.59 0.70 0.81 0.87 0.83 0.80 0.89 0.86 0.84 0.84 0.83 0.88 0.88 0.95 0.97 1.03 1.21 1.26 1.47 1.79 2.05
0.26 0.25 0.23 0.22 0.17 0.16 0.18 0.20 0.28 0.45 0.61 0.76 0.83 0.79 0.70 0.61 0.58 0.58 0.56 0.52 0.51 0.47 0.47 0.51 0.58 0.68 0.72 0.93 0.89 0.74 0.70 0.75 0.82 0.87 0.87 0.89 0.83 0.81 0.87 1.01 1.13 1.43 1.64
0.20 0.19 0.20 0.19 0.18 0.17 0.16 0.16 0.20 0.26 0.35 0.48 0.57 0.56 0.50 0.44 0.41 0.45 0.46 0.43 0.39 0.40 0.38 0.37 0.38 0.44 0.60 0.68 0.52 0.51 0.57 0.71 0.83 0.90 0.92 0.88 0.84 0.88 0.89 0.91 0.92 0.99 1.16
0.18 0.17 0.17 0.16 0.15 0.13 0.12 0.13 0.16 0.18 0.19 0.23 0.27 0.29 0.29 0.28 0.29 0.32 0.32 0.33 0.32 0.30 0.29 0.37 0.44 0.46 0.48 0.54 0.44 0.43 0.54 0.73 0.87 0.87 0.83 0.89 0.91 0.93 1.00 0.93 1.00 0.95 0.93
0.10 0.08 0.08 0.07 0.05 0.05 0.04 0.05 0.06 0.07 0.07 0.07 0.09 0.11 0.13 0.15 0.18 0.19 0.22 0.30 0.33 0.34 0.37 0.49 0.56 0.50 0.42 0.46 0.48 0.53 0.68 0.81 0.89 0.86 0.85 0.93 0.97 1.10 1.15 1.05 1.10 1.06 1.02
0.02 0.02 0.02 0.02 0.01 0.01 0.01 0.01 0.01 0.01 0.02 0.01 0.01 0.02 0.02 0.03 0.06 0.09 0.11 0.17 0.24 0.31 0.39 0.41 0.38 0.38 0.44 0.51 0.50 0.63 0.81 0.93 1.03 0.99 0.98 1.17 1.12 1.09 1.04 1.02 1.16 1.13 0.98
0.00 0.00 0.00 0.00 0.00 0.00 0.00 0.00 0.00 0.01 0.01 0.01 0.01 0.01 0.01 0.01 0.01 0.02 0.03 0.06 0.11 0.15 0.18 0.19 0.23 0.30 0.46 0.52 0.56 0.75 0.85 0.91 1.06 1.08 1.05 0.98 1.11 1.05 0.97 0.97 1.02 1.16 1.03
0.00 0.00 0.01 0.00 0.00 0.00 0.00 0.00 0.00 0.00 0.01 0.01 0.01 0.01 0.01 0.01 0.01 0.02 0.02 0.02 0.04 0.07 0.10 0.13 0.17 0.23 0.31 0.39 0.46 0.60 0.73 0.82 0.99 1.06 0.97 0.87 1.10 1.06 0.96 0.88 0.90 1.04 1.10
0.00 0.00 0.01 0.01 0.00 0.00 0.00 0.00 0.00 0.00 0.00 0.01 0.01 0.01 0.01 0.01 0.01 0.02 0.02 0.02 0.04 0.06 0.08 0.12 0.19 0.25 0.30 0.32 0.39 0.47 0.56 0.68 0.87 0.92 0.94 0.95 0.99 0.91 0.87 0.94 0.97 0.99 1.01
0.00 0.00 0.00 0.01 0.01 0.00 0.00 0.00 0.00 0.00 0.00 0.00 0.01 0.01 0.01 0.02 0.01 0.02 0.03 0.03 0.03 0.06 0.10 0.17 0.23 0.27 0.30 0.32 0.40 0.48 0.52 0.61 0.71 0.73 0.77 0.81 0.78 0.77 0.81 0.87 0.96 1.01 1.06
0.00 0.00 0.00 0.01 0.00 0.00 0.00 0.00 0.00 0.00 0.00 0.00 0.00 0.01 0.01 0.02 0.02 0.02 0.02 0.03 0.03 0.06 0.12 0.16 0.20 0.21 0.24 0.28 0.37 0.50 0.58 0.68 0.78 0.80 0.73 0.75 0.75 0.74 0.74 0.79 0.83 0.86 0.86
0.00 0.00 0.00 0.00 0.01 0.00 0.00 0.00 0.00 0.00 0.00 0.00 0.00 0.01 0.01 0.02 0.03 0.04 0.03 0.02 0.02 0.04 0.06 0.07 0.10 0.17 0.20 0.18 0.21 0.32 0.47 0.63 0.84 1.07 1.07 1.07 1.01 0.92 0.82 0.74 0.68 0.66 0.67